This demonstration page uses our WeatherBlox Daily Observations layout. Learn more.

36.17497, -115.13722

Hourly Observations for July 14, 2018

Temp ( °F °C ) Dew Point ( °F °C ) Humidity (%) Winds ( mph kmh ) Pressure ( in mb ) Visibility ( mi km ) Precip ( " mm )
12:53 am 00:53 Clear 87 30.6 63 17.2 45 45 SE 6 9 29.91 1013 10 16.09344 0 0
1:53 am 01:53 Clear 87 30.6 62 16.7 43 43 Calm 29.91 1013 10 16.09344 0 0
2:53 am 02:53 Clear 85 29.4 63 17.2 48 48 E 6 9 29.91 1013 10 16.09344 0 0
3:53 am 03:53 Mostly Clear 84 28.9 63 17.2 49 49 E 5 7 29.91 1013 10 16.09344 0 0
4:53 am 04:53 Mostly Clear 84 28.9 63 17.2 49 49 E 5 7 29.91 1013 10 16.09344 0 0
5:53 am 05:53 Sunny 84 28.9 64 17.8 51 51 NNW 6 9 29.94 1014 10 16.09344 0 0
6:53 am 06:53 Sunny 86 30 64 17.8 48 48 Calm 29.94 1014 10 16.09344 0 0
7:53 am 07:53 Mostly Sunny 88 31.1 64 17.8 45 45 SSE 6 9 29.94 1014 10 16.09344 0 0
8:02 am 08:02 Mostly Cloudy with Thunderstorms 88 31.1 64 17.8 45 45 SSE 6 9 29.85 1011 10 16.09344 0 0
8:53 am 08:53 Partly Cloudy with Thunderstorms 90 32.2 62 16.7 39 39 ESE 7 11 29.94 1014 10 16.09344 0 0
9:14 am 09:14 Partly Cloudy with Nearby Thunderstorms 90 32.2 62 16.7 39 39 E 5 7 29.85 1011 10 16.09344 0 0
9:33 am 09:33 Mostly Sunny 91 32.8 61 16.1 37 37 SSW 5 7 29.83 1010 10 16.09344 0 0
9:53 am 09:53 Sunny 93 33.9 62 16.7 36 36 N 3 6 29.94 1014 10 16.09344 0 0
10:53 am 10:53 Sunny 95 35 60 15.6 31 31 S 7 11 29.94 1014 10 16.09344 0 0
11:53 am 11:53 Sunny 98 36.7 59 15 27 27 S 3 6 29.91 1013 10 16.09344 0 0
12:53 pm 12:53 Sunny 100 37.8 60 15.6 27 27 N 7 11 29.88 1012 10 16.09344 0 0
1:53 pm 13:53 Mostly Sunny 101 38.3 60 15.6 26 26 N 5 7 29.85 1011 10 16.09344 0 0
2:53 pm 14:53 Sunny 102 38.9 56 13.3 22 22 WNW 5 7 29.83 1010 10 16.09344 0 0
3:53 pm 15:53 Sunny 101 38.3 58 14.4 24 24 W 14 22 29.83 1010 10 16.09344 0 0
4:53 pm 16:53 Sunny 101 38.3 56 13.3 22 22 WNW 7 11 29.8 1009 10 16.09344 0 0
5:53 pm 17:53 Sunny 101 38.3 56 13.3 22 22 WNW 6 9 29.8 1009 10 16.09344 0 0
6:53 pm 18:53 Sunny 101 38.3 56 13.3 22 22 NW 9 15 29.8 1009 10 16.09344 0 0
7:43 pm 19:43 Mostly Cloudy 95 35 62 16.7 34 34 ENE 22 35 29.71 1006 10 16.09344 0 0
7:53 pm 19:53 Mostly Cloudy 92 33.3 64 17.8 40 40 ENE 17 28 29.85 1011 10 16.09344 0 0
8:53 pm 20:53 Cloudy 88 31.1 64 17.8 45 45 E 13 20 29.94 1014 10 16.09344 0 0
9:53 pm 21:53 Mostly Clear 81 27.2 69 20.6 67 67 SSE 10 17 29.97 1015 10 16.09344 0.01 0.254
10:53 pm 22:53 Mostly Clear 80 26.7 68 20 67 67 SE 13 20 30 1016 10 16.09344 0 0
11:53 pm 23:53 Partly Cloudy with Light Rain 81 27.2 69 20.6 67 67 SW 10 17 29.97 1015 10 16.09344 0.001 0.001

Powered by AerisWeather